DW7554 Weather Reports


time (UTC)temp
C
wind
direction
speed
KPH
gust
KPH
rain 1hr
cm
rain 24hr
cm
rain mn
cm
humidity
%
barometer
mb
20260506163055 10 262 3.2 8.0 0.05 0.25 0.25 88 1002.8
20260506161552 10 303 3.2 8.0 0.05 0.23 0.23 88 1002.6
20260506160107 10 281 4.8 22.5 0.05 0.23 0.23 88 1002.8
20260506154550 10 295 6.4 22.5 0.05 0.23 0.23 87 1002.8
20260506153052 10 257 4.8 22.5 0.08 0.23 0.23 88 1002.9
20260506151548 10 280 4.8 22.5 0.08 0.20 0.20 88 1003.0
20260506150050 10 285 4.8 22.5 0.08 0.20 0.20 90 1003.0
20260506144550 10 268 4.8 22.5 0.05 0.18 0.18 89 1003.1
20260506143046 10 288 8.0 22.5 0.05 0.15 0.15 88 1003.0
20260506141545 10 263 4.8 22.5 0.05 0.13 0.13 89 1003.1
20260506140045 10 287 4.8 22.5 0.05 0.13 0.13 90 1003.3
20260506134547 10 283 8.0 22.5 0.05 0.13 0.13 90 1003.4
20260506133042 10 269 8.0 22.5 0.03 0.08 0.08 90 1003.5
20260506131556 10 291 9.7 22.5 0.05 0.08 0.08 86 1003.5
20260506130046 11 268 3.2 22.5 0.08 0.08 0.08 87 1003.3
20260506124540 11 240 8.0 22.5 0.08 0.08 0.08 87 1003.4
20260506123039 11 280 6.4 22.5 0.05 0.05 0.05 86 1003.6
20260506121538 11 266 11.3 22.5 0.03 0.03 0.03 83 1003.5
20260506120037 12 283 14.5 22.5 0.00 0.00 0.00 76 1003.4
20260506114535 12 255 3.2 22.5 0.00 0.00 0.00 71 1003.4
20260506113035 12 301 1.6 22.5 0.00 0.00 0.00 74 1003.6
20260506111532 12 252 3.2 22.5 0.00 0.00 0.00 72 1003.8
20260506110031 12 237 4.8 22.5 0.00 0.00 0.00 71 1003.8
20260506104531 12 253 9.7 22.5 0.00 0.00 0.00 67 1003.9
20260506103037 13 273 6.4 22.5 0.00 0.00 0.00 65 1004.0
20260506101530 13 138 1.6 20.9 0.00 0.00 0.00 63 1004.2
20260506100034 12 33 3.2 20.9 0.00 0.00 0.00 65 1004.3
20260506094534 12 187 1.6 20.9 0.00 0.00 0.00 66 1004.4
20260506093028 12 245 8.0 20.9 0.00 0.00 0.00 65 1004.3
20260506091526 12 301 3.2 20.9 0.00 0.00 0.00 66 1004.4
20260506090021 11 277 6.4 20.9 0.00 0.00 0.00 68 1004.6
20260506084522 11 274 1.6 20.9 0.00 0.00 0.00 72 1004.5
20260506083020 11 285 6.4 20.9 0.00 0.00 0.00 73 1004.6
20260506081518 11 245 6.4 20.9 0.00 0.00 0.00 70 1004.7
20260506073015 12 271 6.4 19.3 0.00 0.00 0.00 61 1004.6
20260506071513 11 262 8.0 19.3 0.00 0.00 0.00 65 1004.6
20260506061601 10 288 9.7 24.1 0.00 0.00 0.00 73 1004.6
20260506060126 10 302 11.3 24.1 0.00 0.00 0.00 72 1004.6
20260506044605 8 280 9.7 0.0 0.00 0.00 0.00 79 1004.7
20260506043053 8 285 9.7 0.0 0.00 0.00 0.00 78 1004.6
20260506041551 -17 0.0 0.0 0.00 0.00 0.00 1004.5
20260506040045 -17 0.0 0.0 0.00 0.00 0.00 1004.6
20260506034541 -17 0.0 0.0 0.00 0.00 0.00 1004.6
20260506033036 -17 0.0 0.0 0.00 0.00 0.00 1004.6
20260506031532 8 288 8.0 12.9 0.00 0.00 0.00 78 1004.6
20260506030034 8 283 6.4 24.1 0.00 0.00 0.00 80 1004.6
20260506024541 8 269 6.4 24.1 0.00 0.00 0.00 80 1004.9
20260506023030 8 269 4.8 24.1 0.00 0.00 0.00 81 1004.9
20260506021526 8 293 8.0 24.1 0.00 0.00 0.00 82 1005.0
20260506020023 8 294 8.0 24.1 0.00 0.00 0.00 82 1005.2
20260506014528 9 286 6.4 24.1 0.00 0.00 0.00 81 1004.9
20260506013022 8 270 3.2 24.1 0.00 0.00 0.00 82 1004.9
20260506011522 8 287 8.0 24.1 0.00 0.00 0.00 82 1004.9
20260506010020 8 300 4.8 24.1 0.00 0.00 0.00 82 1004.8
20260506004518 9 266 4.8 24.1 0.00 0.00 0.00 81 1004.9
20260506003016 9 288 8.0 24.1 0.00 0.00 0.00 81 1004.9
20260506001511 9 280 4.8 24.1 0.00 0.00 0.00 81 1004.9
20260506000011 10 297 6.4 24.1 0.00 0.00 0.00 81 1005.0
20260505234508 10 231 4.8 24.1 0.00 0.00 0.00 81 1005.2
20260505233005 10 290 3.2 24.1 0.00 0.00 0.00 81 1005.4
20260505231504 10 306 4.8 24.1 0.00 0.00 0.00 81 1005.4
20260505230002 10 264 6.4 24.1 0.00 0.00 0.00 80 1005.4
20260505224601 10 257 4.8 24.1 0.00 0.00 0.00 80 1005.4
20260505223059 10 297 9.7 24.1 0.00 0.00 0.00 77 1005.4
20260505221558 10 284 8.0 24.1 0.00 0.00 0.00 75 1005.4
20260505220055 10 304 6.4 24.1 0.00 0.00 0.00 75 1005.5
20260505214554 10 281 8.0 24.1 0.00 0.00 0.00 74 1005.7
20260505213059 10 273 3.2 24.1 0.00 0.00 0.00 74 1005.7
20260505211553 10 278 4.8 24.1 0.00 0.00 0.00 74 1005.8
20260505210054 10 238 6.4 24.1 0.00 0.00 0.00 73 1005.7
20260505204554 10 288 6.4 24.1 0.00 0.00 0.00 73 1005.6
20260505203103 10 269 6.4 24.1 0.00 0.00 0.00 73 1005.6
20260505201549 10 296 11.3 29.0 0.00 0.00 0.00 71 1005.6
20260505200049 10 295 11.3 24.1 0.00 0.00 0.00 71 1005.5
20260505194551 11 245 12.9 30.6 0.00 0.00 0.00 70 1005.3
20260505193048 11 281 14.5 30.6 0.00 0.00 0.00 69 1005.2
20260505191606 11 287 11.3 29.0 0.00 0.00 0.00 69 1005.1
20260505190046 11 300 9.7 29.0 0.00 0.00 0.00 69 1005.1
20260505184546 11 284 11.3 29.0 0.00 0.00 0.00 70 1004.9
20260505183045 11 278 12.9 29.0 0.00 0.00 0.00 70 1004.7
20260505181544 11 273 8.0 29.0 0.00 0.00 0.00 70 1004.7
20260505180058 11 278 9.7 29.0 0.00 0.00 0.00 69 1004.7
20260505174552 11 285 9.7 29.0 0.00 0.00 0.00 69 1004.9
20260505173046 11 278 11.3 29.0 0.00 0.00 0.00 68 1004.7
20260505171544 11 284 8.0 29.0 0.00 0.00 0.00 68 1004.8
20260505170040 11 273 9.7 29.0 0.00 0.00 0.00 68 1004.9
20260505164542 11 294 8.0 29.0 0.00 0.00 0.00 67 1005.0